Location: Namasale
(1.5000°N, 32.6167°E)
Time: 18:58:29
(UTC+00:00)

Courier 1B - Pass Details

Date: 26 April 2021
Orbit: 962 x 1209 km, 28.3° (Epoch: 10 May)

Event Time Altitude Azimuth Distance (km) Brightness Sun altitude
Rises 00:36:17 0° 209° (SSW) 4,081 - -45.5°
Reaches altitude 10° 00:41:48 10° 177° (S) 3,141 - -44.2°
Maximum altitude 00:44:13 12° 159° (SSE) 3,028 - -43.7°
Exits shadow 00:46:20 10° 143° (SE) 3,117 10.2 -43.2°
Drops below altitude 10° 00:46:37 10° 141° (SE) 3,143 10.3 -43.1°
Sets 00:52:08 0° 110° (ESE) 4,090 11.3 -41.8°
